Location: Fort Wayne
(41.1310°N, 85.1290°W)
Time: 07:36:22
(UTC-04:00)

Cosmos 1980 - Visible Passes

Search period start: 29 May 2016 00:00
Search period end: 08 June 2016 00:00
Orbit: 839 x 847 km, 71.0° (Epoch: 28 May)

Date Brightness Start Highest point End Pass type
(mag) Time Alt. Az. Time Alt. Az. Time Alt. Az.
29 May 7.0 04:06:24 10° NNE 04:08:46 13° NE 04:11:07 10° ENE visible
30 May 6.9 03:52:02 10° NNE 03:54:11 12° NE 03:56:19 10° ENE visible
30 May 4.2 05:33:42 10° NNW 05:39:22 69° ENE 05:44:59 10° SSE visible
30 May 7.4 22:15:05 10° NW 22:15:58 10° NW 22:16:52 10° NNW visible
31 May 6.9 03:37:42 10° NNE 03:39:36 12° NE 03:41:30 10° ENE visible
31 May 4.2 05:19:11 10° NNW 05:24:50 66° ENE 05:30:26 10° SSE visible
31 May 7.4 22:00:03 10° WNW 22:01:23 11° NW 22:02:43 10° NNW visible
01 Jun 6.9 03:23:23 10° NNE 03:25:01 11° NE 03:26:37 10° ENE visible
01 Jun 4.3 05:04:39 10° NNW 05:10:18 63° ENE 05:15:52 10° SE visible
01 Jun 7.3 21:45:08 10° WNW 21:46:48 11° NW 21:48:28 10° NNW visible
02 Jun 6.9 03:09:09 10° NNE 03:10:26 11° NE 03:11:42 10° NE visible
02 Jun 4.3 04:50:08 10° NNW 04:55:44 61° ENE 05:01:19 10° SE visible
03 Jun 6.9 02:55:04 10° NE 02:55:50 10° NE 02:56:37 10° NE visible
03 Jun 4.4 04:35:37 10° NNW 04:41:12 58° ENE 04:46:45 10° SE visible
04 Jun 4.4 04:21:05 10° NNW 04:26:39 56° ENE 04:32:11 10° SE visible
05 Jun 4.5 04:06:34 10° NNW 04:12:06 53° ENE 04:17:37 10° SE visible
06 Jun 4.5 03:52:02 10° NNW 03:57:34 51° ENE 04:03:02 10° SE visible
06 Jun 4.9 05:36:59 10° NW 05:41:14 22° W 05:45:27 10° SSW visible
07 Jun 4.6 03:37:32 10° NNW 03:43:01 49° ENE 03:48:28 10° SE visible
07 Jun 4.8 05:22:22 10° NW 05:26:43 23° W 05:31:02 10° SSW visible
